Regional Weather Roundup
Issued by NWS

Home | Current Version | Previous Version | Graphics & Text | Print | Product List | Glossary On
Versions: 1 2 3 4 5 6 7 8 9 10 11 12 13 14 15 16 17 18 19 20 21 22 23 24 25 26 27 28 29 30 31 32 33 34 35 36 37 38 39 40 41 42 43 44 45 46 47 48 49 50
000
ASUS43 KOAX 191810
RWRNE

WEATHER ROUNDUP FOR NEBRASKA
NATIONAL WEATHER SERVICE OMAHA NE
100 PM CDT FRI SEP 19 2014

NOTES: SATELLITE DATA IS BEING USED TO AUGMENT CLOUD COVER ABOVE
       12000 FEET.
       "FAIR" INDICATES FEW OR NO CLOUDS BELOW 12,000 FEET WITH NO
       SIGNIFICANT WEATHER AND/OR OBSTRUCTIONS TO VISIBILITY.

  * THESE STATIONS DO NOT REPORT WEATHER SUCH AS RAIN...SNOW OR FOG.

NEZ001>004-019>022-054>056-191900-
NEBRASKA PANHANDLE

CITY           SKY/WX    TMP DP  RH WIND       PRES   REMARKS
SCOTTSBLUFF    SUNNY     83  51  33 MISG      29.92S
6HR MIN TEMP:  58; 6HR MAX TEMP:  83;

ALLIANCE       SUNNY     83  53  35 VRB7      29.90S
6HR MIN TEMP:  49; 6HR MAX TEMP:  83;

CHADRON        MOSUNNY   81  52  36 SW6       29.87S
6HR MIN TEMP:  55; 6HR MAX TEMP:  81;

KIMBALL        SUNNY     85  42  21 NW10G21   29.96F
SIDNEY         SUNNY     85  49  28 VRB6      29.95F
6HR MIN TEMP:  56; 6HR MAX TEMP:  86;

$$

NEZ057>060-069>072-079>082-191900-
SOUTHWEST NEBRASKA

CITY           SKY/WX    TMP DP  RH WIND       PRES   REMARKS
NORTH PLATTE   SUNNY     84  59  42 SW14      29.86F
6HR MIN TEMP:  53; 6HR MAX TEMP:  84;

IMPERIAL       SUNNY     89  54  30 SW15G22   29.90S
6HR MIN TEMP:  59; 6HR MAX TEMP:  89;

LEXINGTON      SUNNY     82  67  59 S14G20    29.88F
MCCOOK         SUNNY     91  58  32 SW18G25   29.88S HX  90
6HR MIN TEMP:  53; 6HR MAX TEMP:  91;

OGALLALA       SUNNY     87  54  32 SW8       29.87F
$$

NEZ005>010-023>029-035>040-094-191900-
NORTH CENTRAL NEBRASKA

CITY           SKY/WX    TMP DP  RH WIND       PRES   REMARKS
VALENTINE      SUNNY     84  57  39 VRB3      29.80S
6HR MIN TEMP:  57; 6HR MAX TEMP:  84;

AINSWORTH      SUNNY     81  58  46 W8        29.80F
BROKEN BOW     SUNNY     87  60  40 SW17G23   29.84S
6HR MIN TEMP:  62; 6HR MAX TEMP:  87;

O`NEILL        SUNNY     84  63  49 SW14G23   29.78S
ORD            SUNNY     83  64  52 SW17      29.81F
6HR MIN TEMP:  62; 6HR MAX TEMP:  83;

THEDFORD       SUNNY     90  54  29 W15       29.82F
$$

NEZ041-046>049-061>064-073>077-083>087-191900-
SOUTH CENTRAL NEBRASKA

CITY           SKY/WX    TMP DP  RH WIND       PRES   REMARKS
GRAND ISLAND   SUNNY     85  63  47 SW17G26   29.87F
6HR MIN TEMP:  63; 6HR MAX TEMP:  85;

AURORA         SUNNY     85  61  44 S18       29.87F
HASTINGS       SUNNY     83  59  44 SW18G26   29.89S
6HR MIN TEMP:  62; 6HR MAX TEMP:  83;

HEBRON         SUNNY     84  62  46 SW12G20   29.91F
HOLDREGE       SUNNY     82  62  50 SW17G24   29.90R
KEARNEY *      SUNNY     82  64  54 S18G24    29.89S
YORK           SUNNY     82  66  57 SW18G25   29.88F
$$

NEZ011>018-030>034-042>045-191900-
NORTHEAST NEBRASKA

CITY           SKY/WX    TMP DP  RH WIND       PRES   REMARKS
NORFOLK        SUNNY     84  65  52 SW18G31   29.80F
6HR MIN TEMP:  64; 6HR MAX TEMP:  84;

ALBION         SUNNY     82  63  52 SW15G23   29.82F
BLAIR          SUNNY     81  67  63 S14G23    29.88F
COLUMBUS *     SUNNY     84  64  51 SW18G24   29.85F
FREMONT        SUNNY     82  65  57 S17G23    29.86F
TEKAMAH        SUNNY     83  66  56 S23G29    29.84F
6HR MIN TEMP:  63; 6HR MAX TEMP:  83;

WAYNE          MOSUNNY   84  66  54 S21G30    29.79F
$$

NEZ050>053-065>068-078-088>093-191900-
SOUTHEAST NEBRASKA

CITY           SKY/WX    TMP DP  RH WIND       PRES   REMARKS
LINCOLN        SUNNY     85  66  53 S21       29.88F
6HR MIN TEMP:  63; 6HR MAX TEMP:  85;

OMAHA EPPLEY   MOSUNNY   77  65  66 S17       29.88F
6HR MIN TEMP:  63; 6HR MAX TEMP:  77;

BEATRICE       SUNNY     84  66  54 SW16      29.91F
FALLS CITY     CLOUDY    73  66  78 S13       29.95F
6HR MIN TEMP:  63; 6HR MAX TEMP:  73;

NEBRASKA CITY  SUNNY     76  65  69 S13       29.93F
PLATTSMOUTH    SUNNY     76  65  68 S12G21    29.91F
$$

NEZ044-045-051>053-067-191900-
OMAHA AREA

CITY           SKY/WX    TMP DP  RH WIND       PRES   REMARKS
OMAHA EPPLEY   MOSUNNY   77  65  66 S17       29.88F
6HR MIN TEMP:  63; 6HR MAX TEMP:  77;

BLAIR          SUNNY     81  67  63 S14G23    29.88F
FREMONT        SUNNY     82  65  57 S17G23    29.86F
MILLARD        SUNNY     80  68  68 SE15      29.88F
OFFUTT AFB     SUNNY     76  71  84 S16       29.90F
PLATTSMOUTH    SUNNY     76  65  68 S12G21    29.91F
WAHOO          FAIR      84  63  48 S18G25    29.86F
$$



USA.gov is the U.S. government's official web portal to all federal, state and local government web resources and services.